Search for airport 
image banner adimage banner adimage banner ad
image banner ad

8CA9 - Kgtv-10 Parking Lot

Located in San Diego, United States

ICAO - 8CA9, IATA -

Data provided by Airmate  

General information

Coordinates: N32°43'13" W117°5'51"
Elevation is 200 feet MSL.
Magnetic variation is 13° East
View others Airports in California

Operational data

Special qualification required
Current time UTC:
Current local time:
Weather at : KSAN - San Diego Intl ( 9 km )
METAR: KSAN 210151Z 19004KT 10SM FEW012 22/16 A2993 RMK AO2 SLP135 T02170161
TAF: KSAN 210049Z 2101/2206 VRB04KT P6SM FEW010 FM210700 VRB04KT P6SM BKN010 FM211600 VRB04KT P6SM FEW010 FM212000 28008KT P6SM SKC FM220300 VRB04KT P6SM SKC
View NOTAMs / SUP AIP / TFR affecting this airport [VIEW]
Communications frequencies: [VIEW]

Runways:

Airport contact information

Address: San Diego United States

Satellite view of 8CA9